Regional Weather Roundup
Issued by NWS

Home | Current Version | Previous Version | Graphics & Text | Print | Product List | Glossary On
Versions: 1 2 3 4 5 6 7 8 9 10 11 12 13 14 15 16 17 18 19 20 21 22 23 24 25 26 27 28
000
ASUS45 KBOU 221410
RWRCO

WEATHER ROUNDUP FOR COLORADO
NATIONAL WEATHER SERVICE DENVER/BOULDER CO
800 AM MDT TUE MAY 22 2018

NOTE: "FAIR" INDICATES FEW OR NO CLOUDS BELOW 12000 FEET WITH NO
SIGNIFICANT WEATHER AND/OR OBSTRUCTIONS TO VISIBILITY.

COZ001>005-013-030-031-221500-
...NORTHWEST COLORADO...

CITY           SKY/WX    TMP DP  RH WIND       PRES   REMARKS
CRAIG          FAIR      49  41  74 VRB3      30.01R
HAYDEN         FAIR      53  37  54 E7        30.02S
MEEKER         FAIR      48  38  68 S3        30.02R
RANGELY        FAIR      64  35  34 E8        29.95R
RABBIT EARS PA FAIR      43  30  61 S8        30.23S
STEAMBOAT SPGS FAIR      47  35  65 CALM      30.03F
WALDEN         FAIR      43  34  70 SE3       30.14R
$$

COZ006>008-011-221500-
...WEST CENTRAL VALLEYS...

CITY           SKY/WX    TMP DP  RH WIND       PRES   REMARKS
GRAND JUNCTION FAIR      65  35  33 E20       29.93R
MONTROSE       FAIR      52  31  44 S6        30.02R
EAGLE          FAIR      46  31  55 CALM      30.09R
RIFLE          FAIR      55  38  52 CALM      29.99R
DELTA          FAIR      58  33  38 CALM      29.99S
NUCLA          FAIR      55  30  38 E7        30.04S
$$

COZ017>023-064>068-221500-
...SOUTHWEST COLORADO...

CITY           SKY/WX    TMP DP  RH WIND       PRES   REMARKS
DURANGO        CLOUDY    49  41  74 E5        30.11R
CORTEZ         FAIR      61  42  49 SE8G20    30.03S
PAGOSA SPRINGS CLOUDY    48  38  68 CALM      30.17S
TELLURIDE      FAIR      53  32  45 SE10      30.18S
WOLF CREEK PAS LGT RAIN  34  32  93 S8        30.39S WCI  27
$$

COZ009-010-012-014-032>034-037-058>063-221500-
...CENTRAL COLORADO...

CITY           SKY/WX    TMP DP  RH WIND       PRES   REMARKS
ASPEN          FAIR      49  31  49 N3        30.09R
BUENA VISTA    FAIR      43  35  75 CALM      30.18F
COPPER MTN     FAIR      45  21  39 S9        30.33R
BERTHOUD PASS  FAIR      34  23  64 SE13G18   30.35S WCI  25
COTTONWOOD PAS FAIR      46  34  61 CALM      30.24S
GUNNISON       FAIR      43  33  68 N12       30.17S
GRANBY         FAIR      41  34  76 CALM      30.15S
KREMMLING      FAIR      46  34  61 CALM      30.12F
LEADVILLE      FAIR      37  33  85 CALM      30.22R
MONARCH PASS   FAIR      36  28  75 MISG      30.43S
SALIDA         FAIR      45  37  75 N7        30.23F
SUNLIGHT       FAIR      45  23  42 CALM      30.27S
WILKERSON PASS FAIR      41  30  65 CALM      30.33S
$$

COZ069>075-221500-
...SAN LUIS VALLEY/SANGRE DE CRISTO MOUNTAINS...

CITY           SKY/WX    TMP DP  RH WIND       PRES   REMARKS
ALAMOSA        FOG       41  41 100 CALM      30.20R VSB 1/4
DEL NORTE      FAIR      42  37  81 CALM      30.21S
LA VETA PASS   FAIR      41  34  75 S28G37    30.37R
SAGUACHE       NOT AVBL
$$

COZ035-036-038>040-221500-
...NORTHERN COLORADO FRONT RANGE...

CITY           SKY/WX    TMP DP  RH WIND       PRES   REMARKS
DENVER INTL AP PTSUNNY   58  45  62 SW8       29.99S
AURORA         PTSUNNY   58  42  57 W7        30.01F
FRONT RANGE AP PTSUNNY   59  46  63 SW9       30.01S
ERIE MUNI ARPT FAIR      60  50  70 CALM      30.04S
BOULDER MUN AP FAIR      61  43  51 S3        29.99S
CENTENNIAL     PTSUNNY   57  40  52 W9        30.02S
BROOMFIELD     PTSUNNY   59  46  63 W5        30.02R
FORT COLLINS   FAIR      59  50  72 NE7       29.99R
LONGMONT       FAIR      62  47  58 CALM      30.00S
$$

COZ041-046-047-076>085-087-088-221500-
...PIKES PEAK/PALMER DIVIDE AND SOUTHERN FOOTHILLS...

CITY           SKY/WX    TMP DP  RH WIND       PRES   REMARKS
COLO. SPRINGS  PTSUNNY   60  43  53 CALM      30.05R
A. F. ACADEMY  FAIR      52  40  63 N7        30.06R
SCHRIEVER AFB  NOT AVBL
CHEYENNE MTN   FAIR      58  37  45 CALM      30.03R
ELLICOTT         N/A    N/A N/A N/A E7        30.03S
FALCON         FAIR      56  40  53 NE5       30.08S
FORT CARSON    FAIR      56  39  53 N7        30.02S
LIMON          FAIR      52  44  74 CALM      30.03R
MONUMENT HILL  FAIR      52  37  58 W8        30.09S
CANON CITY     FAIR      61  39  44 W16G28    30.01S
WALSENBURG     FAIR      63  39  42 SW12G17   30.06R
TRINIDAD       FAIR      63  47  55 CALM      30.04R
$$

COZ042>045-048>051-090-091-221500-
...NORTHEAST COLORADO...

CITY           SKY/WX    TMP DP  RH WIND       PRES   REMARKS
GREELEY ARPT   FAIR      59  54  83 E6        29.98R
AKRON          FAIR      59  47  64 S10       29.98S
BURLINGTON     FAIR      63  51  65 S9G21     30.00R
WRAY           FAIR      59  48  67 CALM      29.98S
YUMA           FAIR      55  46  71 S6        29.97F
STERLING       FAIR      55  54  94 CALM      29.95S
HOLYOKE        FAIR      61  52  72 S6        29.97S
FORT MORGAN    FAIR      56  48  73 CALM      29.97S
$$

COZ086-089-092>099-221500-
...SOUTHEAST COLORADO...

CITY           SKY/WX    TMP DP  RH WIND       PRES   REMARKS
PUEBLO         FAIR      55  41  59 SW3       30.00R
LA JUNTA       FAIR      67  48  50 S13       29.97S
LAMAR          FAIR      65  51  60 MISG      29.95F
SPRINGFIELD    NOT AVBL
$$




USA.gov is the U.S. government's official web portal to all federal, state and local government web resources and services.